Other Public Products
Issued by NWS Grand Forks, ND

Home | Current Version | Previous Version | Graphics & Text | Print | Product List | Glossary On
Versions: 1 2 3 4 5 6 7 8 9 10 11 12 13 14 15 16 17 18 19 20 21 22 23 24 25 26 27 28 29 30 31 32 33 34 35 36 37 38 39 40 41 42 43 44 45 46 47 48 49 50
000
FPUS83 KFGF 220310
OPUFGF
PRAIRIE TO PINES WEATHER ROUNDUP
NATIONAL WEATHER SERVICE EASTERN NORTH DAKOTA/GRAND FORKS ND
1000 PM CDT SAT OCT 21 2017

 **SATELLITE DATA USED TO AUGMENT SKY COVER AT AUTOMATED STATIONS**
 *****  WEATHER ACROSS EASTERN NORTH DAKOTA  *****

CITY           SKY/WX    TMP DP  RH WIND       PRES   REMARKS
GRAND FORKS    CLOUDY    52  42  69 W12       29.64R
GRAND FORKS AF CLOUDY    52  38  60 W13G21    29.64R
GRAND CITY NWS NOT AVBL
BUXTON         NOT AVBL
DEVILS LAKE    CLOUDY    47  36  65 W21G28    29.66R
FARGO          CLOUDY    53  42  66 W14       29.70S
WAHPETON ARPT  NOT AVBL
$$

 *****  WEATHER ACROSS CENTRAL AND WESTERN NORTH DAKOTA  *****

CITY           SKY/WX    TMP DP  RH WIND       PRES   REMARKS
JAMESTOWN      CLOUDY    49  37  63 W21G29    29.72S
BISMARCK       FAIR      47  34  60 W8        29.82R
MINOT          CLOUDY    49  35  58 W13       29.70F
MINOT AFB      CLOUDY    47  36  66 W13       29.69S
GARRISON         N/A     43  33  68 W10       29.76R
WILLISTON      FAIR      37  27  67 W9        29.79R
DICKINSON      FAIR      36  25  64 W10       29.82R
HETTINGER      FAIR      33  21  61 NW5       29.89S
$$

 *****  OTHER OBSERVATIONS NORTHEAST NORTH DAKOTA  *****

CITY           SKY/WX    TMP DP  RH WIND       PRES   REMARKS
WALHALLA       FAIR     N/A N/A N/A W15G24    29.59R
LANGDON        CLOUDY    46  41  81 W23       29.61R
CAVALIER       CLOUDY    52  41  66 W17G24    29.59R
GRAFTON        CLOUDY    52  43  71 W17       29.63R
CANDO          CLOUDY    46  36  66 W21G28    29.65R
FORT TOTTEN      N/A     47  36  66 W10       29.95S
ROLLA          CLOUDY    43  36  75 W15G25    29.61R
RUGBY          NOT AVBL
 ***** THE ABOVE OBSERVATIONS ARE NON NWS ARE NOT QUALITY
        CONTROLLED AND MAY MIS-REPORT RAIN FOR SNOW...
$$

 *****  OTHER OBSERVATIONS SOUTHEAST NORTH DAKOTA *****

CITY           SKY/WX    TMP DP  RH WIND       PRES   REMARKS
COOPERSTOWN    CLOUDY    50  37  62 W22G31    29.69S
VALLEY CITY    NOT AVBL
OAKES          NOT AVBL
GWINNER        MOCLDY    50  39  66 W13G20    29.75F
SHEYENNE NWR     N/A     52  41  65 W13       29.95S
BUFFALO        NOT AVBL
WYNDMERE       NOT AVBL
 ***** THE ABOVE OBSERVATIONS ARE NON NWS ARE NOT QUALITY
       CONTROLLED AND MAY MIS-REPORT RAIN FOR SNOW...
$$

  *****  WEATHER ACROSS NORTHERN MINNESOTA  *****

CITY           SKY/WX    TMP DP  RH WIND       PRES   REMARKS
FLAG ISLAND    CLOUDY    55  45  67 SW9       29.52S
WARROAD        FAIR      50  45  81 SW8       29.58R
ROSEAU         MOCLDY    52  45  76 SW9       29.58R
HALLOCK        CLOUDY    52  43  71 W14       29.59R
THF RVR FALLS  CLOUDY    51  41  68 SW15      29.64R
HALSTAD        NOT AVBL
FOSSTON        CLOUDY    48  41  76 SW12G18   29.67F
BAUDETTE       FAIR      52  45  77 SW8       29.58R
WASKISH        FAIR      52  46  82 SW12G18   29.62R
CROOKSTON      CLOUDY    52  43  71 W13       29.66S
$$
  *****  WEATHER ACROSS CENTRAL AND WEST MINNESOTA  *****

CITY           SKY/WX    TMP DP  RH WIND       PRES   REMARKS
BEMIDJI        FAIR      48  43  82 W15       29.66S
PARK RAPIDS    LGT RAIN  48  44  86 W14       29.70R
WADENA         FAIR      46  43  87 W9        29.72S
DETROIT LAKES  FAIR      50  43  76 SW12      29.73S
MOORHEAD       CLOUDY    52  41  66 SW10      29.73S
FERGUS FALLS   CLOUDY    48  43  81 W10       29.75F
ELBOW LAKE     MOCLDY    48  42  78 W13G20    29.76F
MORRIS MN      FAIR      48  43  81 W9        29.77S
STAPLES        FAIR      46  43  87 W14       29.72F
WHEATON        MOCLDY    50  39  66 W8        29.79F
$$
  *****  WEATHER ELSEWHERE ACROSS MINNESOTA  *****

CITY           SKY/WX    TMP DP  RH WIND       PRES   REMARKS
DULUTH         CLOUDY    62  61  96 S16       29.66F
INTRNTL FALLS  LGT RAIN  54  51  90 SW8       29.59R
ELY            CLOUDY    63  59  88 S13G21    29.64F
CLOQUET        RAIN      63  57  82 SW13      29.66R
BRAINERD       FAIR     N/A N/A N/A W12       29.71R
HIBBING        CLOUDY    56  55  97 W13G21    29.64R
ALEXANDRIA     FAIR      49  42  77 W16G22    29.77S
SAINT CLOUD    FAIR      51  45  79 W15       29.77R
MINNEAPOLIS    CLOUDY    56  53  90 W9        29.78R
$$

  *****  WEATHER ACROSS SOUTH DAKOTA  *****

CITY           SKY/WX    TMP DP  RH WIND       PRES   REMARKS
SIOUX FALLS    FAIR      47  40  76 W6        29.90R
BROOKINGS      FAIR      42  38  85 SW8       29.88R
WATERTOWN      FAIR      43  39  86 W9        29.83R
HURON          FAIR      47  37  68 W9        29.89R
SISSETON         N/A     51  40  65 W12G22    29.78R
ABERDEEN       CLOUDY    48  40  73 W9        29.83S
MITCHELL       FAIR      49  36  61 W10       29.94R
PIERRE         FAIR      46  35  65 W7        29.91R
MOBRIDGE       FAIR      47  35  63 W8        29.84R
RAPID CITY     FAIR      42  18  37 SW6       29.97R
$$

  *****  SOME WEATHER IN NEARBY STATES *****

CITY           SKY/WX    TMP DP  RH WIND       PRES   REMARKS
GLASGOW MT     FAIR      40  24  53 SW6       29.82R
GREAT FALLS MT FAIR      43  22  43 SW20      29.82F
CHEYENNE WY    FAIR      36  17  46 W10       30.10F
SCOTTSBLUFF NE FAIR      48  15  26 W15       30.06S
OMAHA NE       CLOUDY    53  39  59 NW9       29.95R
DES MOINES IA  TSTM      56  53  90 W7        29.90R
DAVENPORT IA   FAIR      71  59  65 S15G22    29.90R
CHICAGO IL     FAIR      69  56  62 S16       29.99F
EAU CLAIRE WI  RAIN      63  60  90 S14G26    29.76S FOG
LA CROSSE WI   TSTM      68  63  84 S14       29.78R
$$

  *****  SOME NATIONAL WEATHER *****

CITY           SKY/WX    TMP DP  RH WIND       PRES   REMARKS
LA GUARDIA NY  FAIR      66  46  48 SW6       30.35S
RALEIGH NC     MOCLDY    58  55  90 CALM      30.35S
ATLANTA GA     MOCLDY    63  55  75 E10       30.28R
NEW ORLEANS LA CLOUDY    78  75  90 SE18G24   30.08R
OKLAHOMA CITY  TSTM      57  54  89 N26G36    29.90R
ALBUQUERQUE NM FAIR      55   2  11 N17G24    30.23R
SALT LAKE CITY FAIR      49  23  36 S5        30.27S
LOS ANGELES CA FAIR      68  52  56 S5        30.05R
BOISE ID       LGT RAIN  44  40  85 SE16      30.17F
SEATTLE WA     RAIN      57  55  93 S16       29.62R FOG
$$

*** WEATHER ACROSS MANITOBA...SASKATCHEWAN AND ONTARIO ***
                ***ONTARIO***

CITY           SKY/WX    TMP DP  RH WIND       PRES   REMARKS
GERALDTON      MOCLDY    55  54  94 S8        29.79S
THUNDER BAY    CLOUDY    57  55  94 NE5       29.73S
SIOUX LOOKOUT  LGT RAIN  61  57  88 S9        29.56F
TORONTO        MOCLDY    55  50  82 W5        30.23R
BIG TROUT LK   CLOUDY    50  46  87 SE10      29.51F
PICKLE LAKE    NOT AVBL
DRYDEN         CLOUDY    59  59 100 S12G20    29.53F
KENORA         CLOUDY    54  50  87 S8        29.51S
$$
                *** MANITOBA***

CITY           SKY/WX    TMP DP  RH WIND       PRES   REMARKS
BRANDON        CLOUDY    45  37  76 W18       29.56R
DAUPHIN        CLOUDY    45  37  76 W18G26    29.48R
ISLAND LAKE    CLOUDY    61  55  82 SE10      29.32F
PILOT MOUND      N/A     45  39  81 W12G20      N/A
THE PAS        DRIZZLE   39  37  93 NW15      29.42R FOG
THOMPSON       LGT RAIN  41  39  93 N12       29.29F
WINNIPEG       CLOUDY    52  41  66 W10       29.53R
LYNN LAKE      CLOUDY    34  34 100 N9G17     29.43S
CHURCHILL      CLOUDY    37  36  93 SW3       29.43S
GILLAM         CLOUDY    50  43  76 E5        29.33S
$$
                ***SASKATCHEWAN***

CITY           SKY/WX    TMP DP  RH WIND       PRES   REMARKS
ESTEVAN        PTCLDY    41  32  70 W14       29.71R
KINDERSLEY     PTCLDY    36  28  75 SE6       29.68F
LLOYDMINSTER   CLEAR     32  27  80 W7        29.65S
PRINCE ALBERT  PTCLDY    39  37  93 NW8       29.62S
REGINA         CLEAR     36  32  87 W13       29.68S
YORKTON        CLOUDY    39  36  87 W21       29.55S



USA.gov is the U.S. government's official web portal to all federal, state and local government web resources and services.